TimeEDT,TemperatureF,Dew PointF,Humidity,Sea Level PressureIn,VisibilityMPH,Wind Direction,Wind SpeedMPH,Gust SpeedMPH,PrecipitationIn,Events,Conditions,WindDirDegrees,DateUTC
12:53 AM,75.0,57.9,55,29.83,10.0,NW,16.1,27.6,N/A,,Scattered Clouds,310,2012-10-29 04:53:00
1:53 AM,75.0,60.1,60,29.83,10.0,NW,17.3,26.5,N/A,,Overcast,320,2012-10-29 05:53:00
2:53 AM,75.0,59.0,57,29.82,10.0,NW,17.3,25.3,N/A,,Mostly Cloudy,320,2012-10-29 06:53:00
3:53 AM,-9999,-9999,N/A,29.82,-9999.0,NW,16.1,25.3,N/A,,Overcast,320,2012-10-29 07:53:00
4:53 AM,-9999,-9999,N/A,29.82,-9999.0,NW,15.0,24.2,N/A,,Overcast,310,2012-10-29 08:53:00
5:53 AM,-9999,-9999,N/A,29.83,10.0,NW,18.4,31.1,N/A,,Mostly Cloudy,310,2012-10-29 09:53:00
6:13 AM,71.6,60.8,69,29.83,10.0,NNW,16.1,21.9,N/A,,Mostly Cloudy,330,2012-10-29 10:13:00
6:53 AM,71.6,60.1,67,29.85,10.0,NNW,18.4,25.3,N/A,,Mostly Cloudy,330,2012-10-29 10:53:00
7:53 AM,73.4,57.0,56,29.86,10.0,NNW,19.6,26.5,N/A,,Mostly Cloudy,330,2012-10-29 11:53:00
8:53 AM,73.4,55.9,54,29.88,10.0,NNW,15.0,24.2,N/A,,Mostly Cloudy,330,2012-10-29 12:53:00
9:53 AM,73.4,57.9,58,29.90,10.0,NNW,16.1,24.2,N/A,,Mostly Cloudy,330,2012-10-29 13:53:00
10:53 AM,73.8,57.2,56,29.91,10.0,NNW,17.3,26.5,N/A,,Scattered Clouds,330,2012-10-29 14:53:00
11:53 AM,73.4,57.2,57,29.91,10.0,NW,19.6,-,N/A,,Scattered Clouds,320,2012-10-29 15:53:00
12:53 PM,73.8,55.0,52,29.90,10.0,NNW,19.6,25.3,N/A,,Scattered Clouds,330,2012-10-29 16:53:00
1:53 PM,73.4,55.0,52,29.87,10.0,NW,16.1,-,N/A,,Scattered Clouds,310,2012-10-29 17:53:00
2:53 PM,73.4,55.4,53,29.86,10.0,NW,15.0,21.9,N/A,,Scattered Clouds,310,2012-10-29 18:53:00
3:53 PM,73.4,55.4,53,29.85,10.0,NW,13.8,21.9,N/A,,Scattered Clouds,310,2012-10-29 19:53:00
4:53 PM,73.4,55.4,53,29.84,10.0,NW,12.7,21.9,N/A,,Scattered Clouds,310,2012-10-29 20:53:00
5:53 PM,73.4,53.1,49,29.84,10.0,NW,16.1,20.7,N/A,,Scattered Clouds,320,2012-10-29 21:53:00
6:53 PM,71.6,53.1,52,29.86,10.0,NW,11.5,21.9,N/A,,Mostly Cloudy,310,2012-10-29 22:53:00
7:53 PM,71.6,53.1,52,29.86,10.0,NW,15.0,24.2,N/A,,Mostly Cloudy,310,2012-10-29 23:53:00
8:53 PM,69.8,51.1,51,29.89,10.0,NW,15.0,25.3,N/A,,Scattered Clouds,310,2012-10-30 00:53:00
9:53 PM,68.0,53.1,59,29.91,10.0,NW,12.7,-,N/A,,Mostly Cloudy,310,2012-10-30 01:53:00
10:53 PM,-9999,-9999,N/A,29.91,10.0,WNW,12.7,21.9,N/A,,Mostly Cloudy,300,2012-10-30 02:53:00
11:53 PM,-9999,-9999,N/A,29.91,10.0,NW,11.5,23.0,N/A,,Scattered Clouds,310,2012-10-30 03:53:00